Weather History for Lancaster, SC

Change the Weather History Date:

Saturday, February 2, 2013

  Actual Average (KUZA) Record (KUZA)
Temperature  
Mean Temperature 34 °F -  
Max Temperature 50 °F 55 °F 80 °F (1989)
Min Temperature 17 °F 35 °F 12 °F (1979)
Degree Days  
Heating Degree Days 32    
Moisture  
Dew Point 16 °F    
Average Humidity 56    
Maximum Humidity 100    
Minimum Humidity 17    
Precipitation  
Precipitation 0.01 in - - ()
Sea Level Pressure  
Sea Level Pressure 30.26 in    
Wind  
Wind Speed 2 mph (SW)    
Max Wind Speed 16 mph    
Max Gust Speed 25 mph    
Visibility 10 miles    
Events Rain    
Averages and records for this station are not official NWS values.
T = Trace of Precipitation, MM = Missing Value Source: NWS Daily Summary

Daily Weather History Graph

Daily Weather History Graph

Search for Another Location

Airport:

Trip Planner

Search our weather history database for the weather conditions in past years. The results will help you decide how hot, cold, wet, or windy it might be!

Date:

Astronomy

Feb. 02, 2013 Rise Set
Actual Time 7:20 AM EST 5:54 PM EST
Civil Twilight 6:54 AM EST 6:20 PM EST
Nautical Twilight 6:24 AM EST 6:50 PM EST
Astronomical Twilight 5:54 AM EST 7:20 PM EST
Moon No Moon Rise 10:49 AM EST (2/2)
Length of Visible Light 11h 26m
Length of Day
10h 33m
Waning Gibbous, 60% of the Moon is Illuminated
Feb 2
Waning Gibbous
Feb 3
Last Quarter
Feb 10
New
Feb 17
First Quarter
Feb 25
Full

Hourly Weather History & Observations

Time (EST) Temp. Windchill Dew Point Humidity Pressure Visibility Wind Dir Wind Speed Gust Speed Precip Events Conditions
12:15 AM 24.8 °F - 12.2 °F 59% 30.38 in 10.0 mi Calm Calm - N/A Rain Light Freezing Rain
12:35 AM 24.8 °F - 10.4 °F 54% 30.38 in 10.0 mi Calm Calm - N/A   Clear
12:55 AM 24.8 °F - 10.4 °F 54% 30.38 in 10.0 mi Calm Calm - N/A   Clear
1:15 AM 24.8 °F - 10.4 °F 54% 30.38 in 10.0 mi Calm Calm - N/A Rain Light Freezing Rain
1:35 AM 23.0 °F - 10.4 °F 59% 30.38 in 10.0 mi Calm Calm - N/A Rain Light Freezing Rain
1:55 AM 23.0 °F - 12.2 °F 63% 30.37 in 10.0 mi Calm Calm - N/A Rain Light Freezing Rain
2:15 AM 23.0 °F - 14.0 °F 68% 30.38 in 10.0 mi Calm Calm - N/A Rain Light Freezing Rain
2:35 AM 23.0 °F - 12.2 °F 63% 30.37 in 10.0 mi Calm Calm - N/A Rain Light Freezing Rain
2:55 AM 21.2 °F - 12.2 °F 68% 30.37 in 10.0 mi Calm Calm - N/A Rain Light Freezing Rain
3:15 AM 19.4 °F - 14.0 °F 80% 30.38 in 10.0 mi Calm Calm - N/A Rain Light Freezing Rain
3:35 AM 21.2 °F - 14.0 °F 74% 30.38 in 10.0 mi Calm Calm - N/A Rain Light Freezing Rain
3:55 AM 19.4 °F - 14.0 °F 80% 30.38 in 10.0 mi Calm Calm - N/A Rain Light Freezing Rain
4:15 AM 19.4 °F - 14.0 °F 80% 30.38 in 10.0 mi Calm Calm - N/A   Clear
4:35 AM 19.4 °F - 14.0 °F 80% 30.37 in 10.0 mi Calm Calm - N/A Rain Light Freezing Rain
4:55 AM 19.4 °F - 14.0 °F 80% 30.37 in 10.0 mi Calm Calm - N/A Rain Light Freezing Rain
5:15 AM 19.4 °F - 14.0 °F 80% 30.37 in 10.0 mi Calm Calm - N/A Rain Light Freezing Rain
5:35 AM 19.4 °F - 15.8 °F 86% 30.36 in 10.0 mi Calm Calm - N/A Rain Light Freezing Rain
5:55 AM 19.4 °F - 15.8 °F 86% 30.36 in 10.0 mi Calm Calm - N/A Rain Light Freezing Rain
6:15 AM 19.4 °F - 15.8 °F 86% 30.37 in 10.0 mi Calm Calm - N/A Rain Light Freezing Rain
6:35 AM 19.4 °F - 15.8 °F 86% 30.38 in 10.0 mi Calm Calm - N/A Rain Light Freezing Rain
6:55 AM 19.4 °F - 15.8 °F 86% 30.39 in 10.0 mi Calm Calm - N/A Rain Light Freezing Rain
7:15 AM 19.4 °F - 15.8 °F 86% 30.39 in 10.0 mi Calm Calm - N/A Rain Light Freezing Rain
7:35 AM 17.6 °F - 15.8 °F 93% 30.39 in 10.0 mi Calm Calm - N/A Rain Light Freezing Rain
7:55 AM 19.4 °F - 15.8 °F 86% 30.40 in 10.0 mi Calm Calm - N/A Rain Light Freezing Rain
8:15 AM 19.4 °F - 17.6 °F 93% 30.40 in 10.0 mi Calm Calm - N/A Rain Light Freezing Rain
8:35 AM 23.0 °F - 15.8 °F 74% 30.40 in 10.0 mi Calm Calm - N/A Rain Light Freezing Rain
8:55 AM 26.6 °F - 12.2 °F 55% 30.39 in 10.0 mi Calm Calm - N/A Rain Light Freezing Rain
9:15 AM 30.2 °F - 8.6 °F 40% 30.39 in 10.0 mi Calm Calm - N/A Rain Light Freezing Rain
9:35 AM 32.0 °F - 6.8 °F 35% 30.38 in 10.0 mi Calm Calm - N/A Rain Light Rain
9:55 AM 33.8 °F 30.8 °F 5.0 °F 30% 30.38 in 10.0 mi SSE 3.5 mph - N/A Rain Light Rain
10:15 AM 35.6 °F - 6.8 °F 30% 30.37 in 10.0 mi Calm Calm - N/A Rain Light Rain
10:35 AM 35.6 °F 32.8 °F 5.0 °F 28% 30.37 in 10.0 mi East 3.5 mph - N/A Rain Light Rain
10:55 AM 37.4 °F - 5.0 °F 26% 30.36 in 10.0 mi Calm Calm - N/A   Clear
11:15 AM 39.2 °F - 5.0 °F 24% 30.34 in 10.0 mi Calm Calm - N/A   Clear
11:35 AM 39.2 °F - 5.0 °F 24% 30.33 in 10.0 mi Calm Calm - N/A   Clear
11:55 AM 41.0 °F 36.4 °F 5.0 °F 23% 30.31 in 10.0 mi South 6.9 mph - N/A   Clear
12:15 PM 44.6 °F 41.4 °F 6.8 °F 21% 30.29 in 10.0 mi SSW 5.8 mph - N/A   Clear
12:35 PM 44.6 °F 41.4 °F 8.6 °F 23% 30.27 in 10.0 mi WSW 5.8 mph - N/A   Clear
12:55 PM 44.6 °F 40.7 °F 6.8 °F 21% 30.26 in 10.0 mi SW 6.9 mph - N/A   Clear
1:15 PM 44.6 °F 43.1 °F 8.6 °F 23% 30.24 in 10.0 mi South 3.5 mph - N/A   Clear
1:35 PM 46.4 °F 44.3 °F 8.6 °F 22% 30.22 in 10.0 mi SSW 4.6 mph - N/A   Clear
1:55 PM 46.4 °F 43.5 °F 8.6 °F 22% 30.22 in 10.0 mi SSW 5.8 mph - N/A   Clear
2:15 PM 46.4 °F - 8.6 °F 22% 30.21 in 10.0 mi Calm Calm - N/A   Scattered Clouds
2:35 PM 48.2 °F - 8.6 °F 20% 30.20 in 10.0 mi SW 4.6 mph - N/A   Partly Cloudy
3:15 PM 50.0 °F - 6.8 °F 17% 30.18 in 10.0 mi South 4.6 mph - N/A   Clear
3:35 PM 50.0 °F - 6.8 °F 17% 30.17 in 10.0 mi SSW 4.6 mph - N/A   Clear
3:55 PM 50.0 °F - 8.6 °F 19% 30.16 in 10.0 mi SW 6.9 mph - N/A   Clear
4:15 PM 50.0 °F - 10.4 °F 20% 30.15 in 10.0 mi Calm Calm - N/A   Clear
4:35 PM 48.2 °F - 10.4 °F 22% 30.14 in 10.0 mi SSW 5.8 mph - N/A   Partly Cloudy
4:55 PM 48.2 °F - 12.2 °F 24% 30.13 in 10.0 mi SSW 6.9 mph - N/A   Scattered Clouds
5:15 PM 48.2 °F - 14.0 °F 25% 30.13 in 10.0 mi SW 3.5 mph - N/A   Mostly Cloudy
5:35 PM 48.2 °F - 14.0 °F 25% 30.13 in 10.0 mi Calm Calm - N/A   Mostly Cloudy
5:55 PM 46.4 °F - 14.0 °F 27% 30.12 in 10.0 mi Calm Calm - N/A   Scattered Clouds
6:15 PM 46.4 °F - 17.6 °F 32% 30.10 in 10.0 mi Calm Calm - N/A   Clear
6:35 PM 46.4 °F - 17.6 °F 32% 30.10 in 10.0 mi Calm Calm - N/A   Scattered Clouds
6:55 PM 46.4 °F 44.3 °F 19.4 °F 34% 30.10 in 10.0 mi SSW 4.6 mph - N/A Rain Light Rain
7:15 PM 46.4 °F 45.2 °F 19.4 °F 34% 30.10 in 10.0 mi SSW 3.5 mph - N/A   Clear
7:35 PM 46.4 °F 40.4 °F 19.4 °F 34% 30.11 in 10.0 mi WSW 13.8 mph 23.0 mph N/A   Partly Cloudy
7:55 PM 46.4 °F 41.9 °F 28.4 °F 50% 30.12 in 10.0 mi SW 9.2 mph 25.3 mph N/A Rain Light Rain
8:15 PM 44.6 °F 40.2 °F 32.0 °F 61% 30.13 in 10.0 mi SW 8.1 mph 25.3 mph N/A Rain Light Rain
8:35 PM 41.0 °F 32.8 °F 35.6 °F 81% 30.15 in 5.0 mi SW 16.1 mph 23.0 mph N/A Rain Light Rain
9:15 PM 39.2 °F 33.0 °F 39.2 °F 100% 30.13 in 10.0 mi SW 9.2 mph 17.3 mph 0.01 in Rain Light Rain
9:35 PM 39.2 °F 33.6 °F 39.2 °F 100% 30.12 in 10.0 mi SW 8.1 mph - 0.01 in   Clear
9:55 PM 39.2 °F 34.2 °F 39.2 °F 100% 30.11 in 10.0 mi WSW 6.9 mph - 0.01 in   Clear
10:15 PM 39.2 °F 35.0 °F 39.2 °F 100% 30.11 in 10.0 mi WSW 5.8 mph - N/A   Partly Cloudy
10:35 PM 39.2 °F 35.9 °F 39.2 °F 100% 30.11 in 10.0 mi WSW 4.6 mph - N/A   Mostly Cloudy
10:55 PM 39.2 °F 34.2 °F 39.2 °F 100% 30.11 in 10.0 mi West 6.9 mph - N/A   Overcast
11:15 PM 37.4 °F 32.8 °F 37.4 °F 100% 30.09 in 10.0 mi SW 5.8 mph - N/A   Mostly Cloudy
11:35 PM 37.4 °F 33.8 °F 37.4 °F 100% 30.08 in 10.0 mi WSW 4.6 mph - N/A   Partly Cloudy
11:55 PM 37.4 °F 32.8 °F 37.4 °F 100% 30.07 in 10.0 mi SW 5.8 mph - N/A   Mostly Cloudy